TimeEST,TemperatureF,Dew PointF,Humidity,Sea Level PressureIn,VisibilityMPH,Wind Direction,Wind SpeedMPH,Gust SpeedMPH,PrecipitationIn,Events,Conditions,WindDirDegrees,DateUTC
12:53 AM,41.0,32.0,70,30.36,10.0,SSE,6.9,-,N/A,,Clear,160,2013-11-06 05:53:00
1:53 AM,41.0,33.1,73,30.33,10.0,SSE,8.1,-,N/A,,Partly Cloudy,160,2013-11-06 06:53:00
2:53 AM,39.0,33.1,79,30.32,10.0,SSE,6.9,-,N/A,,Clear,150,2013-11-06 07:53:00
3:53 AM,37.9,33.1,83,30.30,10.0,SE,8.1,-,N/A,,Partly Cloudy,130,2013-11-06 08:53:00
4:53 AM,39.9,34.0,79,30.29,10.0,SSE,8.1,-,N/A,,Mostly Cloudy,150,2013-11-06 09:53:00
5:53 AM,39.9,35.1,83,30.28,10.0,SSE,6.9,-,N/A,,Scattered Clouds,150,2013-11-06 10:53:00
6:53 AM,41.0,35.1,79,30.27,10.0,Variable,6.9,-,N/A,,Clear,0,2013-11-06 11:53:00
7:53 AM,43.0,36.0,76,30.26,10.0,South,5.8,-,N/A,,Clear,170,2013-11-06 12:53:00
8:53 AM,46.0,37.9,73,30.24,10.0,South,5.8,-,N/A,,Clear,170,2013-11-06 13:53:00
9:53 AM,51.1,39.9,66,30.20,10.0,South,9.2,-,N/A,,Scattered Clouds,180,2013-11-06 14:53:00
10:53 AM,55.9,42.1,60,30.18,10.0,South,9.2,21.9,N/A,,Clear,190,2013-11-06 15:53:00
11:53 AM,57.9,42.1,56,30.15,10.0,SSW,8.1,18.4,N/A,,Overcast,210,2013-11-06 16:53:00
12:53 PM,61.0,43.0,52,30.11,10.0,SSW,15.0,23.0,N/A,,Overcast,200,2013-11-06 17:53:00
1:53 PM,62.1,43.0,50,30.07,10.0,SSW,10.4,19.6,N/A,,Overcast,210,2013-11-06 18:53:00
2:53 PM,63.0,43.0,48,30.04,10.0,South,9.2,18.4,N/A,,Overcast,190,2013-11-06 19:53:00
3:53 PM,63.0,43.0,48,30.01,10.0,South,12.7,23.0,N/A,,Mostly Cloudy,190,2013-11-06 20:53:00
4:53 PM,63.0,43.0,48,29.99,10.0,South,10.4,-,N/A,,Overcast,190,2013-11-06 21:53:00
5:53 PM,63.0,44.1,50,29.98,10.0,SSW,13.8,18.4,N/A,,Mostly Cloudy,200,2013-11-06 22:53:00
6:53 PM,61.0,44.1,54,29.97,10.0,South,6.9,18.4,N/A,,Overcast,180,2013-11-06 23:53:00
7:53 PM,57.0,46.0,67,29.96,10.0,South,5.8,-,0.00,Rain,Light Rain,170,2013-11-07 00:53:00
8:53 PM,55.0,46.9,74,29.95,8.0,South,5.8,-,0.02,Rain,Light Rain,190,2013-11-07 01:53:00
9:25 PM,54.0,48.9,83,29.94,4.0,SSW,9.2,-,0.02,Rain,Light Rain,200,2013-11-07 02:25:00
9:53 PM,54.0,50.0,86,29.93,4.0,SSW,6.9,-,0.05,Rain,Light Rain,200,2013-11-07 02:53:00
10:10 PM,54.0,51.1,90,29.92,5.0,South,8.1,-,0.01,Rain,Light Rain,190,2013-11-07 03:10:00
10:16 PM,54.0,51.1,90,29.92,4.0,Variable,6.9,-,0.02,Rain,Light Rain,0,2013-11-07 03:16:00
10:29 PM,54.0,51.1,90,29.93,1.8,SW,8.1,-,0.07,Rain,Heavy Rain,220,2013-11-07 03:29:00
10:38 PM,54.0,52.0,93,29.93,3.0,SSW,6.9,-,0.08,Rain,Light Rain,200,2013-11-07 03:38:00
10:53 PM,55.0,52.0,89,29.91,8.0,SW,8.1,-,0.09,Rain,Light Rain,230,2013-11-07 03:53:00
11:53 PM,55.0,52.0,89,29.88,10.0,SSW,9.2,-,0.03,Rain,Light Rain,210,2013-11-07 04:53:00